Regional Weather Roundup
Issued by NWS Midland/Odessa, TX

Home | Current Version | Previous Version | Text Only | Print | Product List | Glossary On
Versions: 1 2 3 4 5 6 7 8 9 10 11 12 13 14 15 16 17 18 19 20 21 22 23 24 25 26 27 28 29 30 31 32 33 34 35 36 37 38 39 40 41 42 43 44 45 46 47 48 49 50
000
ASUS44 KMAF 300110
RWRMAF
MIDLAND AREA WEATHER ROUNDUP
NATIONAL WEATHER SERVICE MIDLAND TX
800 PM CDT WED MAR 29 2017

...IN SOUTHWEST TEXAS AND SOUTHEAST NEW MEXICO...

CITY           SKY/WX    TMP DP  RH WIND       PRES   REMARKS
ALPINE         MOCLDY    54  33  44 N12       30.12R
ANDREWS        MOCLDY    53  37  55 N14       30.03R
ARTESIA        PTCLDY    55  37  50 N5        30.05S
BIG SPRING     CLOUDY    52  40  62 NW14G23   30.02R
CARLSBAD       PTCLDY    56  36  47 N10       30.04R
DRYDEN           N/A     66  35  31 NW31G43   29.91R
FORT STOCKTON  CLOUDY    56  36  47 N20G25    30.05R
GUAD PASS      CLOUDY    47  32  56 E17       30.09
HOBBS          NOT AVBL
MARFA          CLOUDY    53  33  46 N14       30.07R
MIDLAND AIRPK  PTCLDY    54  39  57 N13       30.03R
MIDLAND INTL   PTCLDY    54  38  54 N17       30.02R
ODESSA           N/A     54  37  52 N12       30.03R
PECOS          CLOUDY    57  36  45 CALM      30.05S
PRESIDIO       FAIR      70  34  26 N16G23    29.97R
SEMINOLE       CLOUDY    52  38  58 N14       30.04R
SNYDER         CLOUDY    51  42  70 NW12G18   29.98R
WINK           CLOUDY    56  38  50 NW10      30.03R
$$
...OTHER STATIONS IN TEXAS...

CITY           SKY/WX    TMP DP  RH WIND       PRES   REMARKS
ABILENE        CLOUDY    52  49  89 NW15      29.92R
AMARILLO       CLOUDY    46  39  76 NW16G25   29.95R WCI  39
AUSTIN         PTCLDY    76  45  33 W5        29.77R
BROWNSVILLE    CLOUDY    79  73  82 E9        29.74R
CORPUS CHRISTI PTCLDY    76  55  48 E8        29.76R
DALLAS FTW     PTCLDY    71  55  56 NW18      29.75R
DEL RIO        CLEAR     75  42  30 NW15G29   29.81R
EL PASO        CLOUDY    64  34  32 SE12G18   30.01R
HOUSTON INT    PTCLDY    72  69  90 SE7       29.76R
LUBBOCK        CLOUDY    50  41  71 N15       29.97R
SAN ANGELO     CLEAR     58  40  51 NW16      29.95R
SAN ANTONIO    PTCLDY    78  40  25 W3        29.78R
WACO           CLEAR     67  52  58 W7        29.77R
WICHITA FALLS  NOT AVBL
$$
...OTHER LOCATIONS IN NEW MEXICO...

CITY           SKY/WX    TMP DP  RH WIND       PRES   REMARKS
ALAMAGORDO       N/A    N/A N/A N/A MISG        N/A
ALBUQUERQUE    MOCLDY    61  29  29 VRB3      30.00R
CANNON AFB     MOCLDY    48  41  77 N15       30.00R
CLOVIS         PTCLDY    48  36  61 N12       30.01R
HOLLOMAN AFB   CLOUDY    60  34  38 SE7       30.05R
ROSWELL        CLOUDY    56  37  49 CALM      30.06R
RUIDOSO        LGT RAIN  39  37  93 CALM      30.13R
SANTA FE       CLOUDY    53  30  41 N10       30.01R
TRUTH OR CONSE LGT RAIN  52  41  66 E7        30.05R
TUCUMCARI      CLOUDY    52  38  58 N7        29.99R
$$




USA.gov is the U.S. government's official web portal to all federal, state and local government web resources and services.